Weather History for West Palm Beach, FL

Change the Weather History Date:

Monday, March 3, 2014

  Actual Average Record
Temperature  
Mean Temperature 72 °F 69 °F  
Max Temperature 82 °F 78 °F 89 °F (1916)
Min Temperature 61 °F 61 °F 30 °F (1980)
Degree Days  
Heating Degree Days 0 1  
Month to date heating degree days 0 3  
Since 1 July heating degree days 115 208  
Cooling Degree Days 7 6  
Month to date cooling degree days 14 16  
Year to date cooling degree days 360 251  
Growing Degree Days 22 (Base 50)    
Moisture  
Dew Point 60 °F    
Average Humidity 71    
Maximum Humidity 93    
Minimum Humidity 48    
Precipitation  
Precipitation 0.00 in 0.13 in 3.27 in (1897)
Month to date precipitation 0.00 0.37  
Year to date precipitation 11.48 6.32  
Snow  
Snow 0.00 in - - ()
Month to date snowfall 0.0  
Since 1 July snowfall 0.0  
Snow Depth 0.00 in    
Sea Level Pressure  
Sea Level Pressure 30.03 in    
Wind  
Wind Speed 7 mph (South)    
Max Wind Speed 18 mph    
Max Gust Speed 23 mph    
Visibility 10 miles    
Events      
T = Trace of Precipitation, MM = Missing Value Source: NWS Daily Summary

Daily Weather History Graph

Daily Weather History Graph

Search for Another Location

Airport:

Trip Planner

Search our weather history database for the weather conditions in past years. The results will help you decide how hot, cold, wet, or windy it might be!

Date:

Astronomy

Mar. 03, 2014 Rise Set
Actual Time 6:42 AM EST 6:22 PM EST
Civil Twilight 6:18 AM EST 6:45 PM EST
Nautical Twilight 5:52 AM EST 7:12 PM EST
Astronomical Twilight 5:25 AM EST 7:39 PM EST
Moon 8:06 AM EST (3/3) 9:03 PM EST (3/3)
Length of Visible Light 12h 27m
Length of Day
11h 40m
Waxing Crescent, 8% of the Moon is Illuminated
Mar 3
Waxing Crescent
Mar 8
First Quarter
Mar 16
Full
Mar 23
Last Quarter
Mar 30
New

Hourly Weather History & Observations

Time (EST) Temp. Heat Index Dew Point Humidity Pressure Visibility Wind Dir Wind Speed Gust Speed Precip Events Conditions
12:53 AM 70.0 °F - 59.0 °F 68% 30.06 in 10.0 mi SE 8.1 mph - N/A   Partly Cloudy
1:53 AM 71.1 °F - 60.1 °F 68% 30.04 in 10.0 mi SE 8.1 mph - N/A   Partly Cloudy
2:53 AM 64.9 °F - 59.0 °F 81% 30.03 in 10.0 mi West 5.8 mph - N/A   Partly Cloudy
3:53 AM 62.1 °F - 59.0 °F 90% 30.03 in 10.0 mi WNW 4.6 mph - N/A   Partly Cloudy
4:53 AM 62.1 °F - 59.0 °F 90% 30.03 in 10.0 mi Calm Calm - N/A   Partly Cloudy
5:53 AM 62.1 °F - 60.1 °F 93% 30.04 in 10.0 mi NW 3.5 mph - N/A   Partly Cloudy
6:53 AM 62.1 °F - 59.0 °F 90% 30.05 in 10.0 mi Calm Calm - N/A   Partly Cloudy
7:53 AM 68.0 °F - 61.0 °F 78% 30.06 in 10.0 mi Calm Calm - N/A   Partly Cloudy
8:53 AM 75.0 °F - 61.0 °F 62% 30.08 in 10.0 mi Calm Calm - N/A   Partly Cloudy
9:53 AM 77.0 °F - 60.1 °F 56% 30.09 in 10.0 mi South 6.9 mph - N/A   Scattered Clouds
10:53 AM 78.1 °F - 57.9 °F 50% 30.08 in 10.0 mi South 4.6 mph - N/A   Scattered Clouds
11:53 AM 80.1 °F 80.7 °F 59.0 °F 48% 30.07 in 10.0 mi South 6.9 mph - N/A   Mostly Cloudy
12:53 PM 81.0 °F 81.6 °F 60.1 °F 49% 30.04 in 10.0 mi SSE 12.7 mph - N/A   Partly Cloudy
1:53 PM 81.0 °F 81.9 °F 62.1 °F 52% 30.01 in 10.0 mi SE 13.8 mph - N/A   Scattered Clouds
2:53 PM 81.0 °F 81.6 °F 60.1 °F 49% 29.99 in 10.0 mi SE 15.0 mph - N/A   Scattered Clouds
3:53 PM 81.0 °F 81.3 °F 59.0 °F 47% 29.98 in 10.0 mi SSE 16.1 mph - N/A   Partly Cloudy
4:53 PM 80.1 °F 80.9 °F 60.1 °F 50% 29.99 in 10.0 mi SSE 15.0 mph - N/A   Partly Cloudy
5:53 PM 77.0 °F - 61.0 °F 58% 29.99 in 10.0 mi SSE 11.5 mph - N/A   Partly Cloudy
6:53 PM 75.0 °F - 61.0 °F 62% 30.00 in 10.0 mi South 8.1 mph - N/A   Partly Cloudy
7:53 PM 73.9 °F - 60.1 °F 62% 30.01 in 10.0 mi South 4.6 mph - N/A   Partly Cloudy
8:53 PM 72.0 °F - 61.0 °F 68% 30.03 in 10.0 mi SSW 6.9 mph - N/A   Partly Cloudy
9:53 PM 70.0 °F - 61.0 °F 73% 30.04 in 10.0 mi SW 5.8 mph - N/A   Partly Cloudy
10:53 PM 69.1 °F - 61.0 °F 75% 30.04 in 10.0 mi WSW 6.9 mph - N/A   Clear
11:53 PM 68.0 °F - 59.0 °F 73% 30.04 in 10.0 mi WSW 4.6 mph - N/A   Clear